| time (UTC) | temp C | wind direction | speed KPH | gust KPH | rain 1hr cm | rain 24hr cm | rain mn cm | humidity % | barometer mb |
| 20260503203003 | 16 | 355 | 8.0 | 14.5 | 0.00 | 0.00 | 0.00 | 58 | 1028.4 |
| 20260503202503 | 16 | 1 | 8.0 | 16.1 | 0.00 | 0.00 | 0.00 | 57 | 1028.5 |
| 20260503202003 | 16 | 359 | 8.0 | 16.1 | 0.00 | 0.00 | 0.00 | 57 | 1028.2 |
| 20260503201503 | 16 | 359 | 8.0 | 16.1 | 0.00 | 0.00 | 0.00 | 56 | 1028.3 |
| 20260503201003 | 16 | 9 | 8.0 | 20.9 | 0.00 | 0.00 | 0.00 | 56 | 1028.1 |
| 20260503200503 | 16 | 8 | 8.0 | 20.9 | 0.00 | 0.00 | 0.00 | 56 | 1028.2 |
| 20260503200003 | 16 | 4 | 8.0 | 16.1 | 0.00 | 0.00 | 0.00 | 56 | 1028.0 |
| 20260503195503 | 16 | 8 | 8.0 | 14.5 | 0.00 | 0.00 | 0.00 | 55 | 1028.0 |
| 20260503195024 | 16 | 10 | 8.0 | 19.3 | 0.00 | 0.00 | 0.00 | 55 | 1028.0 |
| 20260503194503 | 16 | 12 | 8.0 | 19.3 | 0.00 | 0.00 | 0.00 | 55 | 1027.6 |
| 20260503194024 | 16 | 17 | 8.0 | 17.7 | 0.00 | 0.00 | 0.00 | 55 | 1027.6 |
| 20260503193503 | 16 | 16 | 11.3 | 20.9 | 0.00 | 0.00 | 0.00 | 55 | 1027.6 |
| 20260503193003 | 16 | 15 | 12.9 | 22.5 | 0.00 | 0.00 | 0.00 | 54 | 1027.7 |
| 20260503192503 | 16 | 17 | 12.9 | 22.5 | 0.00 | 0.00 | 0.00 | 54 | 1027.4 |
| 20260503192003 | 17 | 21 | 11.3 | 20.9 | 0.00 | 0.00 | 0.00 | 54 | 1027.6 |
| 20260503191524 | 17 | 22 | 11.3 | 22.5 | 0.00 | 0.00 | 0.00 | 54 | 1027.3 |
| 20260503191003 | 17 | 18 | 14.5 | 25.7 | 0.00 | 0.00 | 0.00 | 54 | 1027.6 |
| 20260503190524 | 17 | 15 | 12.9 | 25.7 | 0.00 | 0.00 | 0.00 | 54 | 1027.7 |
| 20260503190003 | 17 | 17 | 11.3 | 25.7 | 0.00 | 0.00 | 0.00 | 54 | 1027.6 |
| 20260503185503 | 17 | 19 | 9.7 | 17.7 | 0.00 | 0.00 | 0.00 | 54 | 1027.3 |
| 20260503185024 | 17 | 20 | 11.3 | 22.5 | 0.00 | 0.00 | 0.00 | 53 | 1027.4 |
| 20260503184503 | 17 | 16 | 11.3 | 25.7 | 0.00 | 0.00 | 0.00 | 52 | 1027.3 |
| 20260503184003 | 17 | 13 | 12.9 | 25.7 | 0.00 | 0.00 | 0.00 | 52 | 1027.0 |
| 20260503183503 | 17 | 17 | 12.9 | 25.7 | 0.00 | 0.00 | 0.00 | 52 | 1027.0 |
| 20260503183003 | 18 | 17 | 11.3 | 19.3 | 0.00 | 0.00 | 0.00 | 54 | 1027.1 |
| 20260503182503 | 18 | 10 | 9.7 | 16.1 | 0.00 | 0.00 | 0.00 | 55 | 1027.0 |
| 20260503182024 | 18 | 7 | 9.7 | 19.3 | 0.00 | 0.00 | 0.00 | 55 | 1026.8 |
| 20260503181504 | 18 | 10 | 11.3 | 19.3 | 0.00 | 0.00 | 0.00 | 54 | 1027.2 |
| 20260503181003 | 18 | 19 | 11.3 | 25.7 | 0.00 | 0.00 | 0.00 | 54 | 1027.1 |
| 20260503180503 | 18 | 23 | 12.9 | 25.7 | 0.00 | 0.00 | 0.00 | 54 | 1027.0 |
| 20260503180003 | 18 | 22 | 12.9 | 24.1 | 0.00 | 0.00 | 0.00 | 54 | 1027.3 |
| 20260503175503 | 18 | 9 | 12.9 | 30.6 | 0.00 | 0.00 | 0.00 | 53 | 1027.2 |
| 20260503175024 | 19 | 346 | 12.9 | 30.6 | 0.00 | 0.00 | 0.00 | 49 | 1027.2 |
| 20260503174524 | 19 | 328 | 12.9 | 30.6 | 0.00 | 0.00 | 0.00 | 42 | 1027.1 |
| 20260503174003 | 20 | 323 | 12.9 | 30.6 | 0.00 | 0.00 | 0.00 | 43 | 1027.0 |
| 20260503173524 | 20 | 321 | 14.5 | 29.0 | 0.00 | 0.00 | 0.00 | 43 | 1027.0 |
| 20260503173003 | 19 | 323 | 14.5 | 30.6 | 0.00 | 0.00 | 0.00 | 43 | 1027.0 |
| 20260503172503 | 20 | 333 | 12.9 | 30.6 | 0.00 | 0.00 | 0.00 | 43 | 1027.0 |
| 20260503172024 | 19 | 337 | 16.1 | 30.6 | 0.00 | 0.00 | 0.00 | 42 | 1027.0 |
| 20260503171503 | 20 | 336 | 16.1 | 30.6 | 0.00 | 0.00 | 0.00 | 42 | 1026.8 |
| 20260503171003 | 20 | 337 | 14.5 | 29.0 | 0.00 | 0.00 | 0.00 | 42 | 1026.9 |
| 20260503170503 | 20 | 330 | 14.5 | 30.6 | 0.00 | 0.00 | 0.00 | 41 | 1027.0 |
| 20260503151003 | 20 | 353 | 17.7 | 33.8 | 0.00 | 0.15 | 0.00 | 54 | 1027.0 |
| 20260503150503 | 21 | 315 | 19.3 | 41.8 | 0.00 | 0.15 | 0.00 | 43 | 1027.1 |
| 20260503131003 | 18 | 355 | 11.3 | 20.9 | 0.00 | 0.15 | 0.00 | 63 | 1028.4 |
| 20260503130503 | 18 | 360 | 11.3 | 24.1 | 0.00 | 0.15 | 0.00 | 63 | 1028.1 |
| 20260503110503 | 18 | 21 | 14.5 | 24.1 | 0.00 | 0.15 | 0.00 | 63 | 1029.1 |
| 20260503090504 | 16 | 28 | 8.0 | 14.5 | 0.00 | 0.15 | 0.00 | 74 | 1029.5 |
| 20260503081524 | 16 | 16 | 11.3 | 19.3 | 0.00 | 0.15 | 0.00 | 75 | 1029.8 |
| 20260503081003 | 16 | 17 | 9.7 | 19.3 | 0.00 | 0.15 | 0.00 | 76 | 1029.8 |
| 20260503080503 | 16 | 16 | 9.7 | 19.3 | 0.00 | 0.15 | 0.00 | 77 | 1029.5 |
| 20260503072503 | 15 | 25 | 6.4 | 14.5 | 0.00 | 0.15 | 0.00 | 77 | 1029.5 |
| 20260503072003 | 15 | 60 | 3.2 | 9.7 | 0.00 | 0.15 | 0.00 | 78 | 1029.4 |
| 20260503071503 | 15 | 68 | 3.2 | 6.4 | 0.00 | 0.15 | 0.00 | 78 | 1029.3 |
| 20260503071003 | 14 | 8 | 3.2 | 8.0 | 0.00 | 0.15 | 0.00 | 78 | 1029.3 |
| 20260503070504 | 15 | 349 | 3.2 | 8.0 | 0.00 | 0.15 | 0.00 | 78 | 1029.5 |
| 20260503055003 | 12 | 16 | 4.8 | 11.3 | 0.00 | 0.15 | 0.00 | 87 | 1029.5 |
| 20260503054503 | 12 | 22 | 6.4 | 16.1 | 0.00 | 0.15 | 0.00 | 86 | 1029.5 |
| 20260503054003 | 12 | 15 | 8.0 | 16.1 | 0.00 | 0.15 | 0.00 | 87 | 1029.0 |
| 20260503053524 | 12 | 1 | 6.4 | 12.9 | 0.00 | 0.15 | 0.00 | 87 | 1029.3 |
| 20260503053003 | 12 | 6 | 8.0 | 16.1 | 0.00 | 0.15 | 0.00 | 87 | 1029.3 |
| 20260503052524 | 13 | 18 | 8.0 | 17.7 | 0.00 | 0.15 | 0.00 | 86 | 1029.3 |
| 20260503052003 | 13 | 18 | 11.3 | 22.5 | 0.00 | 0.15 | 0.00 | 87 | 1029.1 |
| 20260503051503 | 13 | 15 | 11.3 | 22.5 | 0.00 | 0.15 | 0.00 | 87 | 1029.1 |
| 20260503051003 | 13 | 17 | 11.3 | 22.5 | 0.00 | 0.15 | 0.00 | 87 | 1029.0 |
| 20260503050504 | 13 | 19 | 11.3 | 22.5 | 0.00 | 0.15 | 0.00 | 86 | 1029.6 |
| 20260503050003 | 13 | 360 | 11.3 | 29.0 | 0.00 | 0.15 | 0.00 | 84 | 1029.3 |
| 20260503045503 | 14 | 323 | 11.3 | 29.0 | 0.00 | 0.15 | 0.00 | 80 | 1029.6 |
| 20260503045003 | 14 | 304 | 9.7 | 19.3 | 0.00 | 0.15 | 0.00 | 79 | 1029.4 |
| 20260503044503 | 14 | 306 | 8.0 | 19.3 | 0.00 | 0.15 | 0.00 | 79 | 1029.3 |
| 20260503044003 | 14 | 321 | 6.4 | 12.9 | 0.00 | 0.15 | 0.00 | 79 | 1029.3 |
| 20260503043503 | 14 | 318 | 4.8 | 14.5 | 0.00 | 0.15 | 0.00 | 80 | 1029.3 |
| 20260503043024 | 14 | 292 | 4.8 | 14.5 | 0.00 | 0.15 | 0.00 | 80 | 1029.4 |
| 20260503042504 | 14 | 277 | 8.0 | 20.9 | 0.00 | 0.15 | 0.00 | 79 | 1028.9 |
| 20260503042025 | 14 | 280 | 11.3 | 20.9 | 0.00 | 0.15 | 0.00 | 79 | 1029.0 |
| 20260503041503 | 14 | 282 | 11.3 | 22.5 | 0.00 | 0.15 | 0.00 | 80 | 1029.1 |
| 20260503041003 | 13 | 270 | 8.0 | 22.5 | 0.00 | 0.15 | 0.00 | 82 | 1029.0 |
| 20260503040503 | 13 | 232 | 4.8 | 9.7 | 0.00 | 0.15 | 0.00 | 81 | 1028.9 |
| 20260503040003 | 13 | 219 | 6.4 | 11.3 | 0.00 | 0.15 | 0.00 | 82 | 1028.9 |
| 20260503035503 | 13 | 244 | 4.8 | 11.3 | 0.00 | 0.15 | 0.00 | 82 | 1029.1 |
| 20260503035003 | 13 | 261 | 4.8 | 11.3 | 0.00 | 0.15 | 0.00 | 82 | 1029.0 |
| 20260503034503 | 13 | 255 | 6.4 | 14.5 | 0.00 | 0.15 | 0.00 | 82 | 1029.3 |
| 20260503034024 | 13 | 269 | 6.4 | 14.5 | 0.00 | 0.15 | 0.00 | 82 | 1029.1 |
| 20260503033503 | 13 | 260 | 4.8 | 9.7 | 0.00 | 0.15 | 0.00 | 82 | 1028.9 |
| 20260503033003 | 13 | 241 | 4.8 | 9.7 | 0.00 | 0.15 | 0.00 | 82 | 1029.4 |
| 20260503032503 | 13 | 250 | 4.8 | 9.7 | 0.00 | 0.15 | 0.00 | 83 | 1029.0 |
| 20260503032003 | 13 | 234 | 6.4 | 12.9 | 0.00 | 0.15 | 0.00 | 83 | 1029.1 |
| 20260503031503 | 13 | 227 | 6.4 | 12.9 | 0.00 | 0.15 | 0.00 | 83 | 1029.4 |
| 20260503031003 | 13 | 243 | 4.8 | 9.7 | 0.00 | 0.15 | 0.00 | 82 | 1029.3 |
| 20260503030503 | 13 | 234 | 4.8 | 11.3 | 0.00 | 0.15 | 0.00 | 81 | 1029.4 |
| 20260503030003 | 13 | 220 | 6.4 | 11.3 | 0.00 | 0.15 | 0.00 | 81 | 1029.3 |
| 20260503025503 | 14 | 217 | 3.2 | 9.7 | 0.00 | 0.15 | 0.00 | 79 | 1029.3 |
| 20260503025003 | 14 | 198 | 1.6 | 6.4 | 0.00 | 0.15 | 0.00 | 78 | 1029.3 |
| 20260503024524 | 14 | 180 | 1.6 | 4.8 | 0.00 | 0.15 | 0.00 | 78 | 1029.6 |
| 20260503024003 | 14 | 161 | 1.6 | 4.8 | 0.00 | 0.15 | 0.00 | 78 | 1029.6 |
| 20260503023503 | 14 | 127 | 0.0 | 3.2 | 0.00 | 0.15 | 0.00 | 78 | 1029.6 |
| 20260503023003 | 14 | 318 | 1.6 | 3.2 | 0.00 | 0.15 | 0.00 | 78 | 1029.5 |
| 20260503022503 | 14 | 314 | 1.6 | 4.8 | 0.00 | 0.15 | 0.00 | 78 | 1029.5 |
| 20260503022003 | 13 | 300 | 0.0 | 4.8 | 0.00 | 0.15 | 0.00 | 79 | 1029.7 |
| 20260503021503 | 13 | 241 | 0.0 | 4.8 | 0.00 | 0.15 | 0.00 | 80 | 1029.5 |
| 20260503021003 | 13 | 205 | 1.6 | 4.8 | 0.00 | 0.15 | 0.00 | 79 | 1029.8 |
| 20260503020503 | 14 | 182 | 3.2 | 4.8 | 0.00 | 0.15 | 0.00 | 79 | 1029.8 |
| 20260503020003 | 14 | 167 | 1.6 | 3.2 | 0.00 | 0.15 | 0.00 | 78 | 1029.7 |
| 20260503015503 | 14 | 284 | 1.6 | 6.4 | 0.00 | 0.15 | 0.00 | 77 | 1029.7 |
| 20260503015003 | 14 | 292 | 3.2 | 6.4 | 0.00 | 0.15 | 0.00 | 76 | 1029.7 |
| 20260503014524 | 14 | 299 | 3.2 | 6.4 | 0.00 | 0.15 | 0.00 | 77 | 1029.7 |
| 20260503014003 | 14 | 102 | 1.6 | 4.8 | 0.00 | 0.15 | 0.00 | 78 | 1029.8 |
| 20260503013503 | 14 | 85 | 1.6 | 6.4 | 0.00 | 0.15 | 0.00 | 78 | 1029.9 |
| 20260503013003 | 14 | 33 | 1.6 | 6.4 | 0.00 | 0.15 | 0.00 | 78 | 1030.0 |
| 20260503012503 | 14 | 3 | 1.6 | 3.2 | 0.00 | 0.15 | 0.00 | 78 | 1030.0 |
| 20260503012003 | 14 | 14 | 1.6 | 6.4 | 0.00 | 0.15 | 0.00 | 77 | 1030.1 |
| 20260503011503 | 15 | 8 | 3.2 | 6.4 | 0.00 | 0.15 | 0.00 | 77 | 1030.1 |
| 20260503011003 | 15 | 349 | 3.2 | 6.4 | 0.00 | 0.15 | 0.00 | 77 | 1030.0 |
| 20260503010503 | 15 | 336 | 3.2 | 6.4 | 0.00 | 0.15 | 0.00 | 77 | 1030.2 |
| 20260503010003 | 15 | 336 | 3.2 | 6.4 | 0.00 | 0.15 | 0.00 | 77 | 1029.9 |
| 20260503005503 | 15 | 333 | 3.2 | 6.4 | 0.00 | 0.15 | 0.00 | 77 | 1030.4 |
| 20260503005024 | 15 | 333 | 3.2 | 6.4 | 0.00 | 0.15 | 0.00 | 77 | 1030.1 |
| 20260503004503 | 15 | 340 | 3.2 | 8.0 | 0.00 | 0.15 | 0.00 | 78 | 1030.3 |
| 20260503004003 | 15 | 354 | 1.6 | 8.0 | 0.00 | 0.15 | 0.00 | 78 | 1030.3 |
| 20260503003503 | 15 | 344 | 0.0 | 3.2 | 0.00 | 0.15 | 0.00 | 80 | 1030.2 |
| 20260503003003 | 15 | 205 | 0.0 | 3.2 | 0.00 | 0.15 | 0.00 | 80 | 1030.6 |
| 20260503002503 | 15 | 184 | 0.0 | 3.2 | 0.00 | 0.15 | 0.00 | 79 | 1030.4 |
| 20260503002003 | 15 | 204 | 0.0 | 3.2 | 0.00 | 0.15 | 0.00 | 79 | 1030.2 |
| 20260503001524 | 15 | 231 | 0.0 | 3.2 | 0.00 | 0.15 | 0.00 | 79 | 1030.3 |
| 20260503001003 | 15 | 289 | 0.0 | 3.2 | 0.00 | 0.15 | 0.00 | 79 | 1030.5 |
| 20260503000524 | 15 | 360 | 0.0 | 3.2 | 0.00 | 0.15 | 0.00 | 79 | 1030.4 |
| 20260503000003 | 15 | 19 | 0.0 | 3.2 | 0.00 | 0.15 | 0.00 | 79 | 1030.4 |
| 20260502235524 | 15 | 209 | 0.0 | 3.2 | 0.00 | 0.15 | 0.00 | 80 | 1030.4 |
| 20260502235003 | 15 | 257 | 1.6 | 4.8 | 0.00 | 0.15 | 0.00 | 80 | 1030.6 |
| 20260502234503 | 15 | 335 | 3.2 | 4.8 | 0.00 | 0.15 | 0.00 | 80 | 1030.6 |
| 20260502234025 | 15 | 339 | 3.2 | 6.4 | 0.00 | 0.15 | 0.00 | 80 | 1030.7 |
| 20260502233503 | 15 | 313 | 4.8 | 6.4 | 0.00 | 0.15 | 0.00 | 80 | 1031.0 |
| 20260502233003 | 15 | 302 | 4.8 | 6.4 | 0.00 | 0.15 | 0.00 | 80 | 1030.8 |
| 20260502232524 | 15 | 293 | 4.8 | 8.0 | 0.00 | 0.15 | 0.00 | 80 | 1031.1 |
| 20260502232003 | 15 | 287 | 4.8 | 8.0 | 0.00 | 0.15 | 0.00 | 80 | 1031.0 |
| 20260502231503 | 15 | 290 | 4.8 | 8.0 | 0.00 | 0.15 | 0.00 | 80 | 1031.1 |
| 20260502231003 | 15 | 292 | 4.8 | 6.4 | 0.00 | 0.15 | 0.00 | 79 | 1030.8 |
| 20260502230503 | 15 | 301 | 3.2 | 6.4 | 0.00 | 0.15 | 0.00 | 79 | 1030.7 |
| 20260502230003 | 15 | 337 | 3.2 | 6.4 | 0.00 | 0.15 | 0.00 | 78 | 1030.8 |
| 20260502225524 | 15 | 342 | 4.8 | 9.7 | 0.00 | 0.15 | 0.00 | 77 | 1030.8 |
| 20260502225024 | 15 | 326 | 4.8 | 9.7 | 0.00 | 0.15 | 0.00 | 77 | 1030.7 |
| 20260502224503 | 15 | 314 | 6.4 | 9.7 | 0.00 | 0.15 | 0.00 | 77 | 1031.1 |
| 20260502224003 | 15 | 308 | 6.4 | 12.9 | 0.00 | 0.15 | 0.00 | 77 | 1031.0 |
| 20260502223503 | 15 | 308 | 6.4 | 12.9 | 0.00 | 0.15 | 0.00 | 77 | 1030.7 |
| 20260502223003 | 15 | 308 | 6.4 | 12.9 | 0.00 | 0.15 | 0.00 | 77 | 1030.8 |
| 20260502222503 | 15 | 308 | 8.0 | 16.1 | 0.00 | 0.15 | 0.00 | 77 | 1030.8 |
| 20260502222003 | 16 | 301 | 9.7 | 19.3 | 0.00 | 0.15 | 0.00 | 76 | 1030.6 |
| 20260502221503 | 15 | 297 | 9.7 | 19.3 | 0.00 | 0.15 | 0.00 | 76 | 1030.8 |
| 20260502221003 | 15 | 294 | 8.0 | 17.7 | 0.00 | 0.15 | 0.00 | 77 | 1030.8 |
| 20260502220025 | 15 | 283 | 9.7 | 17.7 | 0.00 | 0.15 | 0.00 | 78 | 1031.1 |
| 20260502215503 | 15 | 281 | 9.7 | 16.1 | 0.00 | 0.15 | 0.15 | 79 | 1031.1 |
| 20260502215003 | 15 | 290 | 9.7 | 17.7 | 0.00 | 0.15 | 0.15 | 78 | 1031.2 |
| 20260502214503 | 15 | 292 | 9.7 | 17.7 | 0.00 | 0.15 | 0.15 | 78 | 1031.0 |
| 20260502214024 | 15 | 294 | 9.7 | 17.7 | 0.00 | 0.15 | 0.15 | 78 | 1031.3 |
| 20260502213503 | 15 | 297 | 9.7 | 16.1 | 0.00 | 0.15 | 0.15 | 79 | 1031.2 |
| 20260502213024 | 15 | 299 | 8.0 | 16.1 | 0.00 | 0.15 | 0.15 | 79 | 1031.0 |
| 20260502212524 | 15 | 296 | 9.7 | 19.3 | 0.00 | 0.15 | 0.15 | 79 | 1031.1 |
| 20260502212004 | 15 | 294 | 11.3 | 19.3 | 0.00 | 0.15 | 0.15 | 79 | 1031.2 |
| 20260502211503 | 15 | 293 | 9.7 | 20.9 | 0.00 | 0.15 | 0.15 | 79 | 1031.2 |
| 20260502211003 | 16 | 292 | 9.7 | 20.9 | 0.00 | 0.15 | 0.15 | 79 | 1031.2 |
| 20260502210503 | 15 | 290 | 11.3 | 19.3 | 0.00 | 0.15 | 0.15 | 79 | 1031.3 |
| 20260502210003 | 15 | 286 | 9.7 | 19.3 | 0.00 | 0.15 | 0.15 | 80 | 1031.3 |
| 20260502205503 | 15 | 280 | 9.7 | 17.7 | 0.00 | 0.15 | 0.15 | 80 | 1031.1 |
| 20260502205003 | 16 | 281 | 9.7 | 17.7 | 0.00 | 0.15 | 0.15 | 80 | 1031.2 |
| 20260502204503 | 16 | 289 | 11.3 | 19.3 | 0.00 | 0.15 | 0.15 | 78 | 1031.1 |
| 20260502204003 | 16 | 293 | 11.3 | 19.3 | 0.00 | 0.15 | 0.15 | 78 | 1031.1 |
| 20260502203503 | 16 | 290 | 12.9 | 27.4 | 0.00 | 0.15 | 0.15 | 77 | 1031.0 |